Aeroporto :
LOGIN :

Iscrizione | Disclaimer

   EN    FR    IT 

 










Sommario :    VFR   VFR Marginale   IFR   IFR Intensivo   IFR Molto Intensivo
Visibilità : 
Base nubi : 
>= 8 km
>= 3000ft
5 / 8 km
1000 / 3000 ft
1500m / 5 km
500 / 1000 ft
800 / 1500m
200 / 500 ft
< 800m
< 200 ft
Simboli :   Temporali  Nebbia  Neve Forte  Precipitazioni Forti  Vento > 20 kt
SIGMETs :   Varie  Temporali  Ghiacco  Turbolenza  Onda orograficha  Ceneri Vulcaniche






- Altitudine del aeroporto : 23 ft
- Codice IATA : XFW


EDHI - Hamburg Finkenwerder

ULTIMO METAR :
  • 222350Z AUTO 11008KT 060V150 9999 // OVC011/// 08/07 Q1007

METARs OBSOLETI :
  • 222320Z AUTO 10007KT 060V150 9999 // OVC011/// 08/07 Q1007
  • 222250Z AUTO 11009KT 070V190 9999 // OVC012/// 08/06 Q1007
  • 222220Z AUTO 12008KT 090V160 9999 // OVC013/// 08/06 Q1008
  • 222150Z AUTO 12007KT 070V180 9999 // OVC013/// 08/06 Q1008
  • 222120Z AUTO 12006KT 060V180 9000 // OVC013/// 08/06 Q1008

Previsioni scadute.



MetMap, La meteo Aeronautica in un colpo d'occhio ! - Copyright ORBIFLY Dicembre 2007 - Disclaimer

ORBIFLY MET'MAP TEAM :

Programmazione e sviluppo : Alexandra Zaïnal
Concezione e sviluppo : Baudouin d'Aumeries
Co-Programmazione e sviluppo : Marc-Olivier Méhu
Supporto tecnico e logistico : Manuel Goepfert
Aiuto per la traduzione : Arnaldo La Scala

Contatto : metmap@orbifly.com




FONTI E CREDITI :

   NOAA